******** Week 366 almanac for PRN-1 ******** ID: 1 Health: 0 Eccentricity: 0.00169801712 Time of Applicability(s): 503808 Orbital Inclination(rad): 0.9575899037 Rate of Right Ascen(r/s): -8.217485148e-09 SQRT(A) (m 1/2): 5153.564941 Right Ascen at Week(rad): 2.382569898 Argument of Perigee(rad): 0.160731301 Mean Anom(rad): -2.479078861 Af0(s): 0.0002336390381 Af1(s/s): -7.275958e-12 week: 366 ******** Week 366 almanac for PRN-2 ******** ID: 2 Health: 0 Eccentricity: 0.01682186127 Time of Applicability(s): 503808 Orbital Inclination(rad): 0.9626592308 Rate of Right Ascen(r/s): -8.251772291e-09 SQRT(A) (m 1/2): 5153.712891 Right Ascen at Week(rad): 2.220199005 Argument of Perigee(rad): -0.7819137503 Mean Anom(rad): -0.9696054378 Af0(s): 6.406231689e-05 Af1(s/s): 7.275958e-12 week: 366 ******** Week 366 almanac for PRN-3 ******** ID: 3 Health: 0 Eccentricity: 0.006704807281 Time of Applicability(s): 503808 Orbital Inclination(rad): 0.9942256792 Rate of Right Ascen(r/s): -7.348877539e-09 SQRT(A) (m 1/2): 5153.568848 Right Ascen at Week(rad): -2.912276009 Argument of Perigee(rad): 1.209209042 Mean Anom(rad): 1.740311691 Af0(s): 0.0003949253418 Af1(s/s): -1.455192e-11 week: 366 ******** Week 366 almanac for PRN-4 ******** ID: 4 Health: 0 Eccentricity: 0.003719329834 Time of Applicability(s): 503808 Orbital Inclination(rad): 0.9707725511 Rate of Right Ascen(r/s): -7.943188008e-09 SQRT(A) (m 1/2): 5153.652832 Right Ascen at Week(rad): -1.842876058 Argument of Perigee(rad): -2.870846918 Mean Anom(rad): -1.593371237 Af0(s): 4.220576172e-05 Af1(s/s): 0 week: 366 ******** Week 366 almanac for PRN-5 ******** ID: 5 Health: 0 Eccentricity: 0.005501270294 Time of Applicability(s): 503808 Orbital Inclination(rad): 0.9807254499 Rate of Right Ascen(r/s): -7.463168014e-09 SQRT(A) (m 1/2): 5153.691895 Right Ascen at Week(rad): -2.97258737 Argument of Perigee(rad): 1.42175414 Mean Anom(rad): -0.92763069 Af0(s): -0.0001831428589 Af1(s/s): 0 week: 366 ******** Week 366 almanac for PRN-6 ******** ID: 6 Health: 0 Eccentricity: 0.003780841827 Time of Applicability(s): 503808 Orbital Inclination(rad): 0.9863939882 Rate of Right Ascen(r/s): -7.943188008e-09 SQRT(A) (m 1/2): 5153.616699 Right Ascen at Week(rad): 2.33437721 Argument of Perigee(rad): -0.5340897164 Mean Anom(rad): 3.023623315 Af0(s): -0.0004823515625 Af1(s/s): 3.637979e-12 week: 366 ******** Week 366 almanac for PRN-7 ******** ID: 7 Health: 0 Eccentricity: 0.02075862885 Time of Applicability(s): 503808 Orbital Inclination(rad): 0.9508367929 Rate of Right Ascen(r/s): -8.023191341e-09 SQRT(A) (m 1/2): 5153.548828 Right Ascen at Week(rad): -0.8341282692 Argument of Perigee(rad): -1.97703646 Mean Anom(rad): 2.191168718 Af0(s): -0.0001379223999 Af1(s/s): -3.637979e-12 week: 366 ******** Week 366 almanac for PRN-8 ******** ID: 8 Health: 0 Eccentricity: 0.01158857346 Time of Applicability(s): 503808 Orbital Inclination(rad): 0.9428552992 Rate of Right Ascen(r/s): -8.446066098e-09 SQRT(A) (m 1/2): 5153.651367 Right Ascen at Week(rad): 1.211639968 Argument of Perigee(rad): 0.538120161 Mean Anom(rad): -1.28801019 Af0(s): 0.0003632710205 Af1(s/s): -7.275958e-12 week: 366 ******** Week 366 almanac for PRN-9 ******** ID: 9 Health: 0 Eccentricity: 0.003357410431 Time of Applicability(s): 503808 Orbital Inclination(rad): 0.9650201231 Rate of Right Ascen(r/s): -7.977475151e-09 SQRT(A) (m 1/2): 5153.690918 Right Ascen at Week(rad): -1.907448185 Argument of Perigee(rad): 2.049373616 Mean Anom(rad): -0.6857751746 Af0(s): 0.0005999247559 Af1(s/s): -3.637979e-12 week: 366 ******** Week 366 almanac for PRN-10 ******** ID: 10 Health: 0 Eccentricity: 0.01093006134 Time of Applicability(s): 503808 Orbital Inclination(rad): 0.9937523023 Rate of Right Ascen(r/s): -7.326019444e-09 SQRT(A) (m 1/2): 5153.615723 Right Ascen at Week(rad): -2.914782959 Argument of Perigee(rad): -2.257811495 Mean Anom(rad): 0.7473939395 Af0(s): -0.0004657707275 Af1(s/s): 0 week: 366 ******** Week 366 almanac for PRN-11 ******** ID: 11 Health: 0 Eccentricity: 0.00223493576 Time of Applicability(s): 503808 Orbital Inclination(rad): 0.9632824105 Rate of Right Ascen(r/s): -8.183198006e-09 SQRT(A) (m 1/2): 5153.545898 Right Ascen at Week(rad): 2.352153935 Argument of Perigee(rad): -2.329190287 Mean Anom(rad): -2.093023159 Af0(s): -0.0002924256348 Af1(s/s): 1.455192e-11 week: 366 ******** Week 366 almanac for PRN-12 ******** ID: 12 Health: 0 Eccentricity: 0.008897781372 Time of Applicability(s): 503808 Orbital Inclination(rad): 0.9594834112 Rate of Right Ascen(r/s): -7.668890868e-09 SQRT(A) (m 1/2): 5153.708984 Right Ascen at Week(rad): 0.2836291529 Argument of Perigee(rad): 1.574456385 Mean Anom(rad): 1.483770257 Af0(s): -0.0004808442139 Af1(s/s): 0 week: 366 ******** Week 366 almanac for PRN-13 ******** ID: 13 Health: 0 Eccentricity: 0.01013898849 Time of Applicability(s): 503808 Orbital Inclination(rad): 0.976255334 Rate of Right Ascen(r/s): -7.943188008e-09 SQRT(A) (m 1/2): 5153.610352 Right Ascen at Week(rad): -1.731704396 Argument of Perigee(rad): 0.9937244394 Mean Anom(rad): -1.512512922 Af0(s): 0.0005366161133 Af1(s/s): 0 week: 366 ******** Week 366 almanac for PRN-14 ******** ID: 14 Health: 0 Eccentricity: 0.006977081299 Time of Applicability(s): 503808 Orbital Inclination(rad): 0.9428193465 Rate of Right Ascen(r/s): -7.840326581e-09 SQRT(A) (m 1/2): 5153.614258 Right Ascen at Week(rad): 0.2282938669 Argument of Perigee(rad): -2.727323466 Mean Anom(rad): 1.353418966 Af0(s): 0.0005878659668 Af1(s/s): 0 week: 366 ******** Week 366 almanac for PRN-15 ******** ID: 15 Health: 0 Eccentricity: 0.0166721344 Time of Applicability(s): 503808 Orbital Inclination(rad): 0.9430829994 Rate of Right Ascen(r/s): -8.183198006e-09 SQRT(A) (m 1/2): 5153.652832 Right Ascen at Week(rad): -2.052628457 Argument of Perigee(rad): 1.509913469 Mean Anom(rad): -2.282010641 Af0(s): 0.0003195579102 Af1(s/s): 3.637979e-12 week: 366 ******** Week 366 almanac for PRN-16 ******** ID: 16 Health: 0 Eccentricity: 0.01500082016 Time of Applicability(s): 503808 Orbital Inclination(rad): 0.9585845943 Rate of Right Ascen(r/s): -7.691748963e-09 SQRT(A) (m 1/2): 5153.629883 Right Ascen at Week(rad): 0.3005186709 Argument of Perigee(rad): 0.9332280721 Mean Anom(rad): -0.2406720732 Af0(s): 0.0001952016479 Af1(s/s): 7.275958e-12 week: 366 ******** Week 366 almanac for PRN-17 ******** ID: 17 Health: 0 Eccentricity: 0.01259279251 Time of Applicability(s): 503808 Orbital Inclination(rad): 0.9584347915 Rate of Right Ascen(r/s): -8.320346576e-09 SQRT(A) (m 1/2): 5153.56543 Right Ascen at Week(rad): 1.317090661 Argument of Perigee(rad): -1.114599204 Mean Anom(rad): -1.322398549 Af0(s): -9.119459228e-05 Af1(s/s): -7.275958e-12 week: 366 ******** Week 366 almanac for PRN-18 ******** ID: 18 Health: 0 Eccentricity: 0.005868434906 Time of Applicability(s): 503808 Orbital Inclination(rad): 0.9713597781 Rate of Right Ascen(r/s): -8.091765626e-09 SQRT(A) (m 1/2): 5153.581543 Right Ascen at Week(rad): 2.328689197 Argument of Perigee(rad): -2.870757037 Mean Anom(rad): 2.976274392 Af0(s): -0.000295440332 Af1(s/s): 1.091394e-11 week: 366 ******** Week 366 almanac for PRN-19 ******** ID: 19 Health: 0 Eccentricity: 0.01135492325 Time of Applicability(s): 503808 Orbital Inclination(rad): 0.9575719273 Rate of Right Ascen(r/s): -8.354633718e-09 SQRT(A) (m 1/2): 5153.677246 Right Ascen at Week(rad): 1.360964908 Argument of Perigee(rad): 2.953948904 Mean Anom(rad): 0.4378230592 Af0(s): 0.0005509359253 Af1(s/s): 0 week: 366 ******** Week 366 almanac for PRN-20 ******** ID: 20 Health: 0 Eccentricity: 0.002195835114 Time of Applicability(s): 503808 Orbital Inclination(rad): 0.9604121886 Rate of Right Ascen(r/s): -8.068907531e-09 SQRT(A) (m 1/2): 5153.699219 Right Ascen at Week(rad): -1.902068766 Argument of Perigee(rad): -1.91067344 Mean Anom(rad): 1.39211453 Af0(s): 8.893356934e-05 Af1(s/s): 1.818989e-11 week: 366 ******** Week 366 almanac for PRN-21 ******** ID: 21 Health: 0 Eccentricity: 0.0008420944214 Time of Applicability(s): 503808 Orbital Inclination(rad): 0.963629953 Rate of Right Ascen(r/s): -7.623174678e-09 SQRT(A) (m 1/2): 5153.748047 Right Ascen at Week(rad): -2.907415657 Argument of Perigee(rad): -0.1792353187 Mean Anom(rad): 1.050892188 Af0(s): 0.0003278483276 Af1(s/s): 0 week: 366 ******** Week 366 almanac for PRN-22 ******** ID: 22 Health: 0 Eccentricity: 0.0120010376 Time of Applicability(s): 503808 Orbital Inclination(rad): 0.9580393121 Rate of Right Ascen(r/s): -7.691748963e-09 SQRT(A) (m 1/2): 5153.582031 Right Ascen at Week(rad): 0.303879497 Argument of Perigee(rad): -0.9931319693 Mean Anom(rad): -0.6748197205 Af0(s): -1.35661377e-05 Af1(s/s): 7.275958e-12 week: 366 ******** Week 366 almanac for PRN-23 ******** ID: 23 Health: 0 Eccentricity: 0.006114006042 Time of Applicability(s): 503808 Orbital Inclination(rad): 0.9887309121 Rate of Right Ascen(r/s): -7.394593729e-09 SQRT(A) (m 1/2): 5153.674805 Right Ascen at Week(rad): -2.947070708 Argument of Perigee(rad): -2.741285837 Mean Anom(rad): 1.813034215 Af0(s): 0.0005034544434 Af1(s/s): 3.637979e-12 week: 366 ******** Week 366 almanac for PRN-24 ******** ID: 24 Health: 0 Eccentricity: 0.01800060272 Time of Applicability(s): 503808 Orbital Inclination(rad): 0.9347959079 Rate of Right Ascen(r/s): -8.343204671e-09 SQRT(A) (m 1/2): 5153.575684 Right Ascen at Week(rad): -0.9434775804 Argument of Perigee(rad): 1.141820248 Mean Anom(rad): -3.110241923 Af0(s): -2.487125244e-05 Af1(s/s): 1.818989e-11 week: 366 ******** Week 366 almanac for PRN-25 ******** ID: 25 Health: 0 Eccentricity: 0.01287889481 Time of Applicability(s): 503808 Orbital Inclination(rad): 0.9478587131 Rate of Right Ascen(r/s): -7.783181343e-09 SQRT(A) (m 1/2): 5153.663574 Right Ascen at Week(rad): 0.1893417654 Argument of Perigee(rad): 1.160598779 Mean Anom(rad): 1.376035071 Af0(s): 0.0003391534424 Af1(s/s): -3.637979e-12 week: 366 ******** Week 366 almanac for PRN-26 ******** ID: 26 Health: 0 Eccentricity: 0.01102828979 Time of Applicability(s): 503808 Orbital Inclination(rad): 0.9286060557 Rate of Right Ascen(r/s): -7.966046103e-09 SQRT(A) (m 1/2): 5153.694336 Right Ascen at Week(rad): 0.1139954454 Argument of Perigee(rad): 0.7131550089 Mean Anom(rad): 0.5514159095 Af0(s): -0.0002803668457 Af1(s/s): -3.637979e-12 week: 366 ******** Week 366 almanac for PRN-27 ******** ID: 27 Health: 0 Eccentricity: 0.01436710358 Time of Applicability(s): 503808 Orbital Inclination(rad): 0.9519333495 Rate of Right Ascen(r/s): -8.366062766e-09 SQRT(A) (m 1/2): 5153.615723 Right Ascen at Week(rad): 1.244078268 Argument of Perigee(rad): 0.8946976655 Mean Anom(rad): -1.177613757 Af0(s): -8.817989502e-05 Af1(s/s): -1.818989e-11 week: 366 ******** Week 366 almanac for PRN-28 ******** ID: 28 Health: 0 Eccentricity: 0.0004081726074 Time of Applicability(s): 503808 Orbital Inclination(rad): 0.9617424376 Rate of Right Ascen(r/s): -7.954617056e-09 SQRT(A) (m 1/2): 5153.509766 Right Ascen at Week(rad): -0.8593644254 Argument of Perigee(rad): -0.3874245249 Mean Anom(rad): 2.901801797 Af0(s): -0.0004371311035 Af1(s/s): 1.091394e-11 week: 366 ******** Week 366 almanac for PRN-29 ******** ID: 29 Health: 0 Eccentricity: 0.003516197205 Time of Applicability(s): 503808 Orbital Inclination(rad): 0.9610892974 Rate of Right Ascen(r/s): -8.308917528e-09 SQRT(A) (m 1/2): 5153.681641 Right Ascen at Week(rad): 1.333953963 Argument of Perigee(rad): 2.761572883 Mean Anom(rad): -1.347171814 Af0(s): -0.0002675543823 Af1(s/s): 7.275958e-12 week: 366 ******** Week 366 almanac for PRN-30 ******** ID: 30 Health: 0 Eccentricity: 0.008209228516 Time of Applicability(s): 503808 Orbital Inclination(rad): 0.9361081805 Rate of Right Ascen(r/s): -8.206056101e-09 SQRT(A) (m 1/2): 5153.669434 Right Ascen at Week(rad): -0.8437980407 Argument of Perigee(rad): -2.288040579 Mean Anom(rad): 1.964463884 Af0(s): 0.0001507348633 Af1(s/s): 1.455192e-11 week: 366 ******** Week 366 almanac for PRN-31 ******** ID: 31 Health: 0 Eccentricity: 0.01081371307 Time of Applicability(s): 503808 Orbital Inclination(rad): 0.9545938475 Rate of Right Ascen(r/s): -8.023191341e-09 SQRT(A) (m 1/2): 5153.528809 Right Ascen at Week(rad): -0.8097077894 Argument of Perigee(rad): 0.9446112132 Mean Anom(rad): 1.111401663 Af0(s): -0.0001220952393 Af1(s/s): 3.637979e-12 week: 366 ******** Week 366 almanac for PRN-32 ******** ID: 32 Health: 0 Eccentricity: 0.009384155273 Time of Applicability(s): 503808 Orbital Inclination(rad): 0.9680341557 Rate of Right Ascen(r/s): -7.943188008e-09 SQRT(A) (m 1/2): 5153.69043 Right Ascen at Week(rad): -1.890289397 Argument of Perigee(rad): -1.980944441 Mean Anom(rad): -0.6305492446 Af0(s): 6.029394531e-06 Af1(s/s): 1.818989e-11 week: 366